Location: Kolin
(50.0330°N, 15.2000°E)
Time: 08:07:06
(UTC+02:00)

Gurwin Techsat 1B - Pass Details

Date: 13 August 2022
Orbit: 811 x 814 km, 98.8° (Epoch: 25 September)

Event Time Altitude Azimuth Distance (km) Brightness Sun altitude
Rises 04:10:58 0° 12° (NNE) 3,352 12.8 -13.4°
Reaches altitude 10° 04:13:20 10° 10° (N) 2,415 11.9 -13.1°
Maximum altitude 04:18:37 64° 290° (WNW) 900 8.7 -12.5°
Enters shadow 04:23:01 15° 212° (SSW) 2,075 10.1 -12.0°
